| time (UTC) | temp C | wind direction | speed KPH | gust KPH | rain 1hr cm | rain 24hr cm | rain mn cm | humidity % | barometer mb |
| 20260503173025 | 15 | 269 | 14.5 | 33.8 | 0.00 | 0.00 | 0.00 | 32 | 1016.5 |
| 20260503171524 | 15 | 276 | 9.7 | 19.3 | 0.00 | 0.00 | 0.00 | 33 | 1016.7 |
| 20260503081527 | 3 | 317 | 1.6 | 6.4 | 0.00 | 0.00 | 0.00 | 74 | 1016.0 |
| 20260503071524 | 3 | 340 | 4.8 | 6.4 | 0.00 | 0.00 | 0.00 | 76 | 1015.6 |
| 20260503054514 | 4 | 285 | 4.8 | 9.7 | 0.00 | 0.00 | 0.00 | 73 | 1015.3 |
| 20260503053013 | 3 | 287 | 6.4 | 12.9 | 0.00 | 0.00 | 0.00 | 74 | 1015.4 |
| 20260503051512 | 3 | 303 | 4.8 | 14.5 | 0.00 | 0.00 | 0.00 | 72 | 1015.5 |
| 20260503050010 | 5 | 285 | 3.2 | 9.7 | 0.00 | 0.00 | 0.00 | 70 | 1015.4 |
| 20260503044504 | 5 | 299 | 3.2 | 9.7 | 0.00 | 0.00 | 0.00 | 69 | 1015.5 |
| 20260503043002 | 5 | 303 | 4.8 | 12.9 | 0.00 | 0.00 | 0.00 | 69 | 1015.4 |
| 20260503041559 | 5 | 287 | 3.2 | 6.4 | 0.00 | 0.00 | 0.00 | 68 | 1015.5 |
| 20260503040054 | 5 | 308 | 6.4 | 14.5 | 0.00 | 0.00 | 0.00 | 68 | 1015.4 |
| 20260503034610 | 5 | 309 | 6.4 | 12.9 | 0.00 | 0.00 | 0.00 | 67 | 1015.4 |
| 20260503033058 | 6 | 315 | 4.8 | 12.9 | 0.00 | 0.00 | 0.00 | 65 | 1015.4 |
| 20260503031557 | 6 | 270 | 4.8 | 14.5 | 0.00 | 0.00 | 0.00 | 64 | 1015.4 |
| 20260503030056 | 6 | 286 | 8.0 | 16.1 | 0.00 | 0.00 | 0.00 | 64 | 1015.4 |
| 20260503024551 | 6 | 297 | 9.7 | 20.9 | 0.00 | 0.00 | 0.00 | 63 | 1015.3 |
| 20260503023058 | 7 | 314 | 6.4 | 17.7 | 0.00 | 0.00 | 0.00 | 62 | 1015.3 |
| 20260503021553 | 7 | 312 | 6.4 | 12.9 | 0.00 | 0.00 | 0.00 | 62 | 1015.4 |
| 20260503020050 | 7 | 312 | 9.7 | 20.9 | 0.00 | 0.00 | 0.00 | 61 | 1015.2 |
| 20260503014546 | 7 | 320 | 11.3 | 19.3 | 0.00 | 0.00 | 0.00 | 60 | 1015.2 |
| 20260503013052 | 7 | 317 | 8.0 | 14.5 | 0.00 | 0.00 | 0.00 | 59 | 1014.9 |
| 20260503011551 | 8 | 318 | 9.7 | 17.7 | 0.00 | 0.00 | 0.00 | 56 | 1014.6 |
| 20260503010114 | 8 | 350 | 9.7 | 19.3 | 0.00 | 0.00 | 0.00 | 54 | 1014.4 |
| 20260503004544 | 8 | 324 | 8.0 | 24.1 | 0.00 | 0.00 | 0.00 | 53 | 1014.0 |
| 20260503003043 | 9 | 282 | 9.7 | 20.9 | 0.00 | 0.00 | 0.00 | 52 | 1013.7 |
| 20260503001543 | 9 | 326 | 6.4 | 16.1 | 0.00 | 0.00 | 0.00 | 51 | 1013.6 |
| 20260503000042 | 9 | 305 | 3.2 | 19.3 | 0.00 | 0.00 | 0.00 | 51 | 1013.4 |
| 20260502234546 | 10 | 304 | 8.0 | 19.3 | 0.00 | 0.00 | 0.00 | 48 | 1013.2 |
| 20260502233042 | 10 | 311 | 8.0 | 16.1 | 0.00 | 0.00 | 0.00 | 49 | 1013.0 |
| 20260502231540 | 10 | 332 | 9.7 | 27.4 | 0.00 | 0.00 | 0.00 | 47 | 1012.8 |
| 20260502230040 | 10 | 304 | 8.0 | 19.3 | 0.00 | 0.00 | 0.00 | 46 | 1012.7 |
| 20260502224541 | 10 | 306 | 9.7 | 17.7 | 0.00 | 0.00 | 0.00 | 45 | 1012.6 |
| 20260502223043 | 11 | 318 | 11.3 | 19.3 | 0.00 | 0.00 | 0.00 | 47 | 1012.5 |
| 20260502221543 | 11 | 335 | 12.9 | 17.7 | 0.00 | 0.00 | 0.00 | 45 | 1012.4 |
| 20260502220039 | 11 | 312 | 12.9 | 20.9 | 0.00 | 0.00 | 0.00 | 43 | 1012.3 |
| 20260502214547 | 11 | 309 | 11.3 | 19.3 | 0.00 | 0.00 | 0.00 | 43 | 1012.1 |
| 20260502213038 | 11 | 297 | 8.0 | 19.3 | 0.00 | 0.00 | 0.00 | 43 | 1012.1 |
| 20260502211537 | 12 | 308 | 9.7 | 22.5 | 0.00 | 0.00 | 0.00 | 41 | 1012.0 |
| 20260502210047 | 12 | 284 | 6.4 | 20.9 | 0.00 | 0.00 | 0.00 | 43 | 1012.0 |
| 20260502204535 | 12 | 301 | 11.3 | 19.3 | 0.00 | 0.00 | 0.00 | 40 | 1012.0 |
| 20260502203040 | 12 | 268 | 9.7 | 24.1 | 0.00 | 0.00 | 0.00 | 40 | 1011.9 |
| 20260502201536 | 12 | 250 | 3.2 | 14.5 | 0.00 | 0.00 | 0.00 | 41 | 1012.0 |
| 20260502200033 | 12 | 252 | 11.3 | 24.1 | 0.00 | 0.00 | 0.00 | 40 | 1012.0 |
| 20260502194531 | 12 | 258 | 9.7 | 14.5 | 0.00 | 0.00 | 0.00 | 42 | 1012.2 |
| 20260502193030 | 11 | 257 | 8.0 | 17.7 | 0.00 | 0.00 | 0.00 | 43 | 1012.5 |
| 20260502191528 | 11 | 288 | 3.2 | 20.9 | 0.00 | 0.00 | 0.00 | 47 | 1012.8 |
| 20260502190032 | 11 | 270 | 4.8 | 16.1 | 0.00 | 0.00 | 0.00 | 45 | 1012.9 |
| 20260502184532 | 12 | 310 | 11.3 | 17.7 | 0.00 | 0.00 | 0.00 | 41 | 1013.1 |
| 20260502183022 | 12 | 286 | 1.6 | 16.1 | 0.00 | 0.00 | 0.00 | 45 | 1013.3 |
| 20260502181520 | 12 | 237 | 4.8 | 19.3 | 0.00 | 0.00 | 0.00 | 48 | 1013.3 |